Cloud_Cover
0 0 0 0 0 0 0 0 0 0 0 0 0 0 0 4 5 5 85 100 99 96 99 100 100 100 100 100 100 100 97 54 5 0 0 0 0 0 0 0 4 1 0 5
0 0 0 0 0 0 0 0 0 0 0 0 0 0 0 5 4 34 83 100 100 100 100 100 100 100 100 100 100 100 97 5 0 0 0 0 0 0 0 0 1 0 0 5
0 0 0 0 0 0 0 0 0 0 0 0 0 0 0 29 5 48 83 100 100 100 100 100 100 100 100 100 100 100 76 14 2 0 0 0 0 0 0 0 0 0 0 5
0 0 0 5 0 15 2 0 0 0 0 0 0 0 0 29 10 87 100 100 100 100 100 100 100 100 100 100 100 100 99 25 0 0 0 0 0 0 0 5 5 0 3 5
0 0 91 38 18 100 80 100 2 0 0 0 0 0 0 100 58 100 100 100 100 100 100 100 100 100 100 100 100 98 6 0 0 0 0 0 0 0 0 4 0 0 5 5
0 50 56 100 100 100 100 100 36 0 0 1 4 5 5 100 90 74 97 100 100 100 100 100 100 100 100 100 56 1 0 0 0 0 0 0 0 0 0 0 0 3 5 5
99 93 97 85 100 100 97 100 40 4 2 7 30 4 69 92 100 100 100 100 100 100 100 100 100 99 89 12 4 0 0 0 0 0 0 0 0 0 0 2 5 5 5 5
86 85 90 100 100 100 100 100 48 69 6 95 100 39 38 100 100 100 100 100 100 100 100 100 61 46 5 2 0 0 0 0 0 0 0 0 0 0 0 4 5 5 5 5
5 8 98 100 100 100 100 99 68 95 96 81 62 100 91 100 100 100 100 100 100 100 100 9 37 5 0 0 0 0 0 0 0 0 0 0 0 0 0 2 5 4 5 4
60 100 79 100 100 75 97 88 68 100 87 36 100 100 100 100 100 100 100 100 100 99 15 26 5 1 0 0 0 0 0 0 0 0 0 0 0 0 0 0 0 0 5 5
100 100 96 49 91 100 100 100 100 97 90 88 100 100 100 100 100 100 100 100 75 71 14 4 17 0 0 0 0 0 0 0 0 0 0 0 0 0 0 1 2 0 2 5
100 100 100 99 100 100 100 100 100 100 23 99 100 100 100 100 100 100 100 54 49 22 5 20 0 0 0 0 0 0 0 0 0 0 0 0 0 0 0 0 1 0 0 3
100 100 100 100 100 100 100 100 100 30 100 100 100 100 100 100 100 100 26 65 25 11 17 0 0 0 0 0 0 0 0 0 0 0 0 0 0 0 0 0 0 0 0 4
96 100 100 100 100 100 100 100 44 88 100 100 100 100 100 100 100 79 28 49 9 44 0 0 0 0 0 0 0 0 0 0 0 0 0 0 0 0 0 0 0 0 0 4
100 100 100 100 68 100 98 98 10 100 80 100 100 100 100 100 98 73 82 36 74 5 1 2 0 0 0 0 0 0 0 0 0 0 0 0 0 0 0 0 0 0 4 4
100 100 100 54 88 100 98 28 63 100 100 100 100 100 100 99 83 75 98 100 53 5 3 0 1 0 0 0 0 0 0 0 0 0 0 0 0 0 0 0 0 0 3 5
100 100 100 100 100 89 98 8 92 100 100 100 100 100 100 66 83 92 100 96 10 0 0 5 2 0 0 0 0 0 0 0 0 0 0 0 0 0 0 0 0 0 4 5
100 100 100 100 100 96 70 54 100 100 100 100 100 100 100 100 99 100 99 50 5 0 24 32 0 0 0 0 0 0 0 0 0 0 0 0 0 0 0 0 0 0 2 5
96 99 100 100 100 16 99 100 100 100 100 100 100 100 98 100 100 100 98 6 1 4 97 0 0 0 0 0 0 0 0 0 0 0 0 0 0 0 0 0 0 4 5 5
7 6 99 100 97 60 99 89 85 100 100 100 100 100 100 76 100 100 18 5 4 68 4 0 0 0 0 0 0 0 0 0 0 0 0 0 0 0 0 3 0 5 5 5
100 80 100 82 34 90 100 86 100 100 100 100 100 79 100 100 100 100 12 2 5 5 0 0 0 0 0 0 0 0 0 0 0 0 0 0 0 1 5 5 5 5 5 4
6 26 100 90 100 100 87 100 100 100 100 100 100 100 86 100 100 100 3 5 29 7 0 0 0 0 0 0 0 0 0 0 0 0 0 0 0 0 1 4 5 5 5 5
9 78 100 100 100 100 100 100 100 100 100 100 100 97 100 100 100 100 20 3 11 4 0 0 0 0 0 0 0 0 0 0 0 0 0 0 0 0 0 0 4 5 5 5
43 100 100 100 100 100 100 100 100 100 95 100 100 100 100 100 100 99 5 9 5 0 0 0 0 3 1 0 0 0 0 0 0 0 0 0 0 0 0 0 0 5 5 5
91 86 100 100 100 100 100 100 100 100 100 100 100 100 100 100 100 48 68 4 2 4 51 3 4 4 0 0 0 0 0 0 0 0 0 0 0 0 0 0 0 2 5 4
100 100 100 100 100 100 100 100 100 100 100 100 100 100 100 100 100 100 26 1 0 57 82 15 3 0 0 0 0 0 0 0 0 0 0 0 0 0 1 5 5 4 1 1